This is the latest recevied weather packets stored in our database for station/object N7CEE. If no packets are shown the sender has not sent any weather packets the latest 10 day(s).
| Time | Temp. | Humidity | Pressure | Rain* | Wind** | Luminosity | Snow |
|---|---|---|---|---|---|---|---|
| 1777523558 | 10° C | 27% | 1023.7 hPa | 0 mm | - | 0 W/m² | - |
| 1777523254 | 10.56° C | 26% | 1023.6 hPa | 0 mm | - | 0 W/m² | - |
| 1777522950 | 10.56° C | 26% | 1023.7 hPa | 0 mm | - | 0 W/m² | - |
| 1777522647 | 11.11° C | 25% | 1023.6 hPa | 0 mm | - | 0 W/m² | - |
| 1777522344 | 11.11° C | 25% | 1023.6 hPa | 0 mm | - | 0 W/m² | - |
| 1777522040 | 11.11° C | 25% | 1023.5 hPa | 0 mm | - | 0 W/m² | - |
| 1777521737 | 11.67° C | 24% | 1023.6 hPa | 0 mm | - | 0 W/m² | - |
| 1777521434 | 11.67° C | 24% | 1023.6 hPa | 0 mm | - | 0 W/m² | - |
| 1777521131 | 11.67° C | 24% | 1023.5 hPa | 0 mm | - | 0 W/m² | - |
| 1777520829 | 11.67° C | 24% | 1023.5 hPa | 0 mm | - | 0 W/m² | - |
| 1777520526 | 12.22° C | 23% | 1023.1 hPa | 0 mm | - | 0 W/m² | - |
| 1777520222 | 11.67° C | 23% | 1023 hPa | 0 mm | - | 0 W/m² | - |
| 1777519921 | 12.22° C | 23% | 1023.1 hPa | 0 mm | - | 0 W/m² | - |
| 1777519617 | 12.22° C | 23% | 1023.2 hPa | 0 mm | - | 0 W/m² | - |
| 1777519313 | 12.22° C | 23% | 1023 hPa | 0 mm | - | 0 W/m² | - |
| 1777519010 | 12.22° C | 23% | 1023 hPa | 0 mm | - | 0 W/m² | - |
| 1777518706 | 12.22° C | 23% | 1022.6 hPa | 0 mm | - | 0 W/m² | - |
| 1777518403 | 12.22° C | 23% | 1022.9 hPa | 0 mm | - | 0 W/m² | - |
| 1777518098 | 12.22° C | 22% | 1022.6 hPa | 0 mm | - | 0 W/m² | - |
| 1777517794 | 12.22° C | 22% | 1022.9 hPa | 0 mm | - | 0 W/m² | - |
| 1777517491 | 12.22° C | 22% | 1022.9 hPa | 0 mm | - | 0 W/m² | - |
| 1777517189 | 12.78° C | 22% | 1022.6 hPa | 0 mm | - | 0 W/m² | - |
| 1777516887 | 12.78° C | 22% | 1022.5 hPa | 0 mm | - | 0 W/m² | - |
| 1777516584 | 13.33° C | 21% | 1022.5 hPa | 0 mm | - | 0 W/m² | - |
| 1777516280 | 13.33° C | 21% | 1022.8 hPa | 0 mm | - | 0 W/m² | - |
* Rain latest hour (hover to see other rain measurements)
** Current wind speed in m/s (hover to see current wind gust speed)